sat.trackr.live / text

‹ back to catalog

STARLINK-37777

NORAD 69349 · 2026-122W

PAYLOAD ACTIVE UNKNOWN

§ Identity

Operator
Country
US
Launch date
2026-06-03
Launch site
AFWTR
Launch vehicle
Mass (kg)
RCS (m²)

Purposes: comms

External: N2YO · Heavens-Above · Gunter

§ Orbital elements

Epoch: 2026-09-19T07:58:51.265920Z

Period
93.91 min
Inclination
97.2848°
Eccentricity
0.0000683
Mean motion
15.33443974 rev/d
Perigee alt
465.1 km
Apogee alt
466.0 km
Semi-major
6,843.7 km
B*
5.0053e-4
RAAN
291.0181°
Arg perigee
106.0276°
Mean anomaly
254.1042°
Rev number
1,662

§ Raw data

STARLINK-377771 69349U 26122W   26262.33253780  .00016118  00000+0  50053-3 0  99952 69349  97.2848 291.0181 0000683 106.0276 254.1042 15.33443974 16628

JSON: /api/v1/satellites/69349 · /tle

For live sub-satellite position, see the globe view (requires WebGL).

§ Visibility from observer

Set your observer location to see the next 7 days of passes ≥ 10°. The values pass through the URL so the page stays shareable.

No JS? Fill the form by hand. The geolocation button needs JavaScript.